Change the Weather History Date:

Saturday, July 14, 2012

  Actual Average Record
Temperature  
Mean Temperature 79 °F 71 °F  
Max Temperature 92 °F 88 °F 101 °F (1983)
Min Temperature 66 °F 53 °F 41 °F (1952)
Degree Days  
Heating Degree Days 0 0  
Month to date heating degree days 0 11  
Since 1 June heating degree days 44 147  
Since 1 July heating degree days 0 11  
Cooling Degree Days 14 6  
Month to date cooling degree days 127 73  
Year to date cooling degree days 274 130  
Since 1 June cooling degree days 265 126  
Growing Degree Days 28 (Base 50)    
Moisture  
Dew Point 47 °F    
Average Humidity 39    
Maximum Humidity 57    
Minimum Humidity 20    
Precipitation  
Precipitation 0.02 in 0.05 in 0.35 in (1994)
Month to date precipitation 0.19 0.60  
Year to date precipitation 5.11 7.42  
Snow  
Snow 0.00 in 0.00 in - ()
Month to date snowfall 0.0 0.0  
Since 1 June snowfall 0.0 0.1  
Since 1 July snowfall 0.0 0.0  
Snow Depth 0.00 in    
Sea Level Pressure  
Sea Level Pressure 29.88 in    
Wind  
Wind Speed 14 mph (SSW)    
Max Wind Speed 25 mph    
Max Gust Speed 45 mph    
Visibility 10 miles    
Events Rain , Thunderstorm    
T = Trace of Precipitation, MM = Missing Value Source: NWS Daily Summary

Daily Weather History Graph

Daily Weather History Graph

Search for Another Location

Airport or City:

Trip Planner

Search our weather history database for the weather conditions in past years. The results will help you decide how hot, cold, wet, or windy it might be!

Date:

Astronomy

Jul. 14, 2012 Rise Set
Actual Time 5:40 AM MDT 8:42 PM MDT
Civil Twilight 5:06 AM MDT 9:16 PM MDT
Nautical Twilight 4:22 AM MDT 10:00 PM MDT
Astronomical Twilight 3:30 AM MDT 10:51 PM MDT
Moon 1:57 AM MDT (7/14) 5:09 PM MDT (7/14)
Length of Visible Light 16h 10m
Length of Day
15h 02m
Waning Crescent, 18% of the Moon is Illuminated
Jul 14
Waning Crescent
Jul 18
New
Jul 26
First Quarter
Aug 1
Full
Aug 9
Last Quarter

Hourly Weather History & Observations

Time (MDT) Temp. Dew Point Humidity Pressure Visibility Wind Dir Wind Speed Gust Speed Precip Events Conditions
12:53 AM 82.0 °F 37.9 °F 21% 29.81 in 10.0 mi West 6.9 mph - N/A   Clear
1:53 AM 80.1 °F 37.0 °F 21% 29.80 in 10.0 mi South 15.0 mph 23.0 mph N/A   Clear
2:53 AM 79.0 °F 37.9 °F 23% 29.80 in 10.0 mi South 18.4 mph 27.6 mph N/A   Clear
3:53 AM 78.8 °F 39.2 °F 24% 30.08 in 10.0 mi SSW 19.6 mph 34.5 mph N/A   Clear
4:53 AM 77.0 °F 39.9 °F 26% 29.83 in 10.0 mi SW 11.5 mph - N/A   Clear
5:53 AM 72.0 °F 41.0 °F 33% 29.85 in 10.0 mi SW 10.4 mph - N/A   Clear
6:53 AM 73.9 °F 43.0 °F 33% 29.88 in 10.0 mi SW 8.1 mph - N/A   Clear
7:53 AM 80.1 °F 44.1 °F 28% 29.88 in 10.0 mi SSW 15.0 mph - N/A   Clear
8:53 AM 81.0 °F 44.1 °F 27% 29.89 in 10.0 mi South 15.0 mph - N/A   Clear
9:53 AM 84.9 °F 45.0 °F 25% 29.88 in 10.0 mi SSW 16.1 mph - N/A   Clear
10:53 AM 84.9 °F 45.0 °F 25% 29.88 in 10.0 mi SSW 18.4 mph 31.1 mph N/A   Clear
11:53 AM 88.0 °F 45.0 °F 22% 29.88 in 10.0 mi SW 18.4 mph 26.5 mph N/A   Clear
12:53 PM 90.0 °F 45.0 °F 21% 29.85 in 10.0 mi SW 16.1 mph 25.3 mph N/A   Mostly Cloudy
1:53 PM 88.0 °F 43.0 °F 21% 29.84 in 10.0 mi SW 17.3 mph 31.1 mph N/A   Partly Cloudy
2:53 PM 88.0 °F 44.1 °F 22% 29.82 in 10.0 mi SSW 17.3 mph 26.5 mph N/A   Scattered Clouds
3:53 PM 91.9 °F 44.1 °F 19% 29.79 in 10.0 mi SSW 11.5 mph 20.7 mph N/A   Clear
4:53 PM 89.1 °F 45.0 °F 22% 29.77 in 10.0 mi South 12.7 mph - N/A   Clear
5:44 PM 78.8 °F 48.2 °F 34% 30.05 in 10.0 mi West 23.0 mph 38.0 mph N/A Thunderstorm Clear
5:53 PM 75.9 °F 52.0 °F 43% 29.86 in 9.0 mi SW 18.4 mph 28.8 mph 0.00 in Rain Light Rain
6:53 PM 68.0 °F 59.0 °F 73% 29.91 in 10.0 mi South 10.4 mph - 0.02 in Rain , Thunderstorm Light Rain
7:14 PM 69.8 °F 59.0 °F 68% 30.11 in 10.0 mi South 6.9 mph - 0.00 in   Overcast
7:53 PM 70.0 °F 55.0 °F 59% 29.88 in 10.0 mi South 11.5 mph 24.2 mph 0.00 in   Partly Cloudy
8:53 PM 72.0 °F 52.0 °F 49% 29.85 in 10.0 mi South 11.5 mph - N/A   Scattered Clouds
9:53 PM 69.1 °F 53.1 °F 57% 29.89 in 10.0 mi SW 25.3 mph 34.5 mph N/A   Clear
10:53 PM 66.0 °F 55.9 °F 70% 29.88 in 10.0 mi South 12.7 mph - 0.00 in Rain Light Rain
11:53 PM 66.0 °F 55.0 °F 68% 29.86 in 10.0 mi Calm Calm - 0.00 in   Clear